カタログに戻る

THORAD AGENA D DEB

運用中SSO
NORAD 5696·DEBRIS·🇺🇸 United States

打ち上げ Apr 8, 1970 から Vandenberg Space Force Base

Loading…

次のパス (今後24時間)

TLE

最新Source: Space-Track

元期: Sep 14, 2026, 12:17 UTC

1 05696U 70025MB  26257.51245466  .00000264  00000-0  43229-3 0  9990
2 05696  99.5027 354.6549 0053461 304.1586 124.4684 13.56432771778552

AllMySatでTHORAD AGENA D DEBをリアルタイム追跡

Download on the App Store